This demonstration page uses our WeatherBlox Daily Observations layout. Learn more.

Left ArrowRight Arrow

41.55636, -103.73856

Hourly Observations for July 7, 2020

Temp ( °F °C ) Dew Point ( °F °C ) Humidity (%) Winds ( mph kmh ) Pressure ( in mb ) Visibility ( mi km ) Precip ( " mm )
6:58 pm 18:58 Mostly Clear 83 28.5 44 6.7 25 25 SE 9 15 29.85 1011 10 16 0.00 0.00
7:58 pm 19:58 Clear 80 26.7 46 7.7 30 30 SSE 21 33 29.85 1011 10 16 0.00 0.00
8:58 pm 20:58 Mostly Cloudy 75 23.9 48 8.9 39 39 SSE 23 37 29.87 1011 10 16 0.00 0.00
9:58 pm 21:58 Mostly Cloudy 74 23.4 47 8.6 39 39 S 30 48 29.86 1011 10 16 0.00 0.00
10:58 pm 22:58 Clear 73 22.5 44 6.8 36 36 S 30 48 29.84 1011 10 16 0.00 0.00
11:58 pm 23:58 Clear 71 21.8 44 6.8 38 38 S 29 46 29.83 1010 10 16 0.00 0.00
12:58 am 00:58 Clear 72 22.1 45 7.3 39 39 S 35 56 29.79 1009 10 16 0.00 0.00
1:58 am 01:58 Clear 72 22 49 9.3 44 44 S 36 57 29.78 1009 10 16 0.00 0.00
2:58 am 02:58 Clear 70 21.1 50 10.1 50 50 S 31 50 29.76 1008 10 16 0.00 0.00
3:58 am 03:58 Clear 71 21.5 50 10 48 48 S 29 46 29.75 1007 10 16 0.00 0.00
4:58 am 04:58 Clear 71 21.5 49 9.6 47 47 SSW 24 39 29.76 1008 10 16 0.00 0.00
5:58 am 05:58 Sunny 68 20.1 50 10.2 53 53 NNW 12 19 29.83 1010 10 16 0.00 0.00
6:58 am 06:58 Sunny 71 21.5 50 10 48 48 Calm 29.82 1010 10 16 0.00 0.00
7:58 am 07:58 Sunny 74 23.1 50 10.2 44 44 NE 3 6 29.83 1010 10 16 0.00 0.00
8:58 am 08:58 Sunny 79 26.3 51 10.6 37 37 ESE 8 13 29.83 1010 10 16 0.00 0.00
9:58 am 09:58 Sunny 85 29.4 49 9.6 29 29 Calm 29.80 1009 10 16 0.00 0.00
10:58 am 10:58 Sunny 93 34.1 40 4.2 15 15 SSW 14 22 29.78 1008 10 16 0.00 0.00
11:58 am 11:58 Sunny 96 35.4 40 4.5 14 14 SW 14 22 29.75 1008 10 16 0.00 0.00
12:58 pm 12:58 Sunny 100 37.7 30 -1 8 8 SSW 17 28 29.71 1006 10 16 0.00 0.00
1:58 pm 13:58 Sunny 98 36.7 28 -2.5 8 8 WSW 9 15 29.69 1005 10 16 0.00 0.00
2:58 pm 14:58 Partly Cloudy 100 37.9 35 1.9 10 10 SSE 23 37 29.64 1004 10 16 0.00 0.00
3:58 pm 15:58 Sunny 95 35 35 1.7 12 12 S 36 57 29.65 1004 10 16 0.00 0.00
4:59 pm 16:59 Partly Cloudy 93 33.7 35 1.4 13 13 S 29 46 29.65 1004 10 16 0.00 0.00
5:58 pm 17:58 Sunny 90 32 38 3.3 16 16 S 33 54 29.67 1005 10 16 0.00 0.00

Powered by AerisWeather